FW9258 Weather Reports


time (UTC)temp
F
wind
direction
speed
knots
gust
knots
rain 1hr
in
rain 24hr
in
rain mn
in
humidity
%
barometer
mb
20260505215018 49 309 3.5 7.8 0.00 0.00 0.00 81 1015.3
20260505214559 49 333 4.3 7.8 0.00 0.00 0.00 81 1015.4
20260505214021 49 335 3.5 7.8 0.00 0.00 0.00 81 1015.3
20260505213517 49 315 4.3 7.8 0.00 0.00 0.00 81 1015.3
20260505213036 49 320 3.5 8.7 0.00 0.00 0.00 80 1015.4
20260505212518 49 340 5.2 8.7 0.00 0.00 0.00 80 1015.3
20260505212017 49 2 5.2 8.7 0.00 0.00 0.00 80 1015.4
20260505211532 49 357 4.3 8.7 0.00 0.00 0.00 80 1015.4
20260505211016 49 342 3.5 7.8 0.00 0.00 0.00 80 1015.4
20260505210519 49 331 4.3 7.8 0.00 0.00 0.00 81 1015.3
20260505210034 49 335 3.5 7.8 0.00 0.00 0.00 81 1015.4
20260505205516 49 319 1.7 7.0 0.00 0.00 0.00 81 1015.4
20260505205018 49 319 2.6 7.0 0.00 0.00 0.00 82 1015.5
20260505204537 49 319 2.6 6.1 0.00 0.00 0.00 82 1015.5
20260505204019 49 321 2.6 6.1 0.00 0.00 0.00 81 1015.4
20260505203518 49 342 2.6 7.0 0.00 0.00 0.00 81 1015.4
20260505203043 49 346 2.6 7.0 0.00 0.00 0.00 81 1015.4
20260505202518 49 338 3.5 7.0 0.00 0.00 0.00 81 1015.4
20260505202017 49 318 3.5 7.0 0.00 0.00 0.00 81 1015.5
20260505201537 49 344 4.3 7.0 0.00 0.00 0.00 81 1015.4
20260505201015 49 330 4.3 8.7 0.00 0.00 0.00 81 1015.4
20260505200516 49 321 4.3 8.7 0.00 0.00 0.00 80 1015.3
20260505200034 49 328 3.5 8.7 0.00 0.00 0.00 81 1015.2
20260505195521 49 315 4.3 7.8 0.00 0.00 0.00 81 1015.2
20260505195015 49 329 4.3 7.0 0.00 0.00 0.00 81 1015.2
20260505194540 49 310 5.2 8.7 0.00 0.00 0.00 81 1015.3
20260505194019 49 304 4.3 8.7 0.00 0.00 0.00 81 1015.2
20260505193519 49 309 4.3 7.0 0.00 0.00 0.00 81 1015.1
20260505193036 49 321 4.3 7.0 0.00 0.00 0.00 81 1015.0
20260505192518 49 315 4.3 8.7 0.00 0.00 0.00 80 1015.0
20260505192021 50 309 5.2 8.7 0.00 0.00 0.00 80 1014.9
20260505191536 50 331 4.3 9.6 0.00 0.00 0.00 79 1015.0
20260505191018 50 311 5.2 9.6 0.00 0.00 0.00 78 1015.0
20260505190515 50 311 5.2 9.6 0.00 0.00 0.00 77 1014.9
20260505190037 51 324 4.3 8.7 0.00 0.00 0.00 77 1014.9
20260505185517 51 338 5.2 11.3 0.00 0.00 0.00 76 1014.9
20260505185105 51 318 6.1 11.3 0.00 0.00 0.00 75 1014.9
20260505184535 52 309 6.1 10.4 0.00 0.00 0.00 74 1014.9
20260505184018 52 331 6.1 10.4 0.00 0.00 0.00 74 1014.9
20260505183517 52 319 7.0 11.3 0.00 0.00 0.00 73 1014.9
20260505183033 53 321 6.1 11.3 0.00 0.00 0.00 74 1014.9
20260505182519 53 330 6.1 11.3 0.00 0.00 0.00 74 1014.9
20260505182015 53 326 5.2 11.3 0.00 0.00 0.00 73 1014.9
20260505181533 53 314 5.2 10.4 0.00 0.00 0.00 73 1014.9
20260505181017 54 360 5.2 12.2 0.00 0.00 0.00 73 1014.7
20260505180518 54 316 6.1 12.2 0.00 0.00 0.00 72 1014.7
20260505180057 54 327 7.8 12.2 0.00 0.00 0.00 70 1014.7
20260505175521 54 322 7.0 13.0 0.00 0.00 0.00 71 1014.8
20260505175022 54 331 7.0 13.0 0.00 0.00 0.00 71 1014.7
20260505174553 54 316 7.0 11.3 0.00 0.00 0.00 70 1014.7
20260505174018 55 308 6.1 10.4 0.00 0.00 0.00 70 1014.7
20260505173519 55 342 6.1 10.4 0.00 0.00 0.00 71 1014.7
20260505173043 55 10 6.1 12.2 0.00 0.00 0.00 71 1014.8
20260505172515 55 334 7.0 13.0 0.00 0.00 0.00 71 1014.7
20260505172015 55 319 7.0 13.0 0.00 0.00 0.00 70 1014.7
20260505171534 55 326 7.8 11.3 0.00 0.00 0.00 70 1014.8
20260505171021 55 336 7.0 11.3 0.00 0.00 0.00 69 1014.9
20260505170515 55 317 7.0 13.9 0.00 0.00 0.00 70 1014.8
20260505170038 55 34 7.0 13.9 0.00 0.00 0.00 69 1014.9
20260505165518 56 352 7.8 13.0 0.00 0.00 0.00 69 1014.9
20260505165016 56 320 7.8 13.9 0.00 0.00 0.00 70 1014.9
20260505164533 56 309 7.0 13.9 0.00 0.00 0.00 72 1015.0
20260505164017 56 324 6.1 13.9 0.00 0.00 0.00 72 1015.0
20260505163520 56 333 7.0 13.9 0.00 0.00 0.00 71 1015.0
20260505163035 55 342 7.8 14.8 0.00 0.00 0.00 70 1015.0
20260505162516 55 356 7.0 15.6 0.00 0.00 0.00 73 1015.0
20260505162016 56 330 9.6 16.5 0.00 0.00 0.00 74 1014.9
20260505161537 56 347 9.6 16.5 0.00 0.00 0.00 72 1015.0
20260505161019 56 325 11.3 16.5 0.00 0.00 0.00 72 1014.9
20260505160516 57 314 7.8 14.8 0.00 0.00 0.00 71 1015.0
20260505153032 58 336 7.0 13.9 0.00 0.00 0.00 64 1015.0
20260505152516 58 319 7.8 13.0 0.00 0.00 0.00 67 1015.0
20260505152015 58 311 7.0 13.0 0.00 0.00 0.00 64 1015.0
20260505151534 58 339 7.0 13.0 0.00 0.00 0.00 63 1015.0
20260505151019 58 336 8.7 13.0 0.00 0.00 0.00 62 1015.0
20260505150520 58 348 6.1 12.2 0.00 0.00 0.00 64 1015.0
20260505140516 58 309 6.1 11.3 0.00 0.00 0.00 61 1015.1
20260505125015 58 313 7.0 11.3 0.00 0.05 0.00 62 1015.0
20260505124537 59 6 5.2 13.9 0.00 0.05 0.00 65 1015.0
20260505124016 58 23 7.0 13.9 0.00 0.05 0.00 64 1015.1
20260505123518 59 327 5.2 10.4 0.00 0.05 0.00 65 1015.1
20260505123034 58 324 7.0 11.3 0.00 0.05 0.00 64 1015.1
20260505122519 59 321 6.1 11.3 0.00 0.05 0.00 61 1015.1
20260505122022 59 321 5.2 10.4 0.00 0.05 0.00 66 1015.1
20260505121535 58 326 6.1 12.2 0.00 0.05 0.00 63 1015.1
20260505121019 58 331 7.0 12.2 0.00 0.05 0.00 66 1015.1
20260505120515 58 321 5.2 11.3 0.00 0.05 0.00 64 1015.1
20260505120038 58 338 7.0 11.3 0.00 0.05 0.00 63 1015.1
20260505115653 58 346 5.2 11.3 0.00 0.08 0.00 62 1015.1
20260505115015 58 329 6.1 11.3 0.00 0.08 0.00 66 1015.0
20260505114552 58 328 6.1 11.3 0.00 0.08 0.00 62 1015.1
20260505114021 58 329 6.1 11.3 0.00 0.08 0.00 63 1015.2
20260505113524 57 329 5.2 10.4 0.00 0.08 0.00 63 1015.2
20260505113031 57 2 6.1 10.4 0.00 0.08 0.00 63 1015.3
20260505112517 56 340 5.2 10.4 0.00 0.08 0.00 63 1015.3
20260505112015 56 329 4.3 8.7 0.00 0.08 0.00 68 1015.3
20260505111531 57 3 5.2 7.8 0.00 0.08 0.00 63 1015.3
20260505111017 57 321 5.2 13.0 0.00 0.08 0.00 64 1015.3
20260505110514 57 356 5.2 13.0 0.00 0.08 0.00 66 1015.2
20260505102017 56 345 6.1 11.3 0.00 0.08 0.00 65 1015.6
20260505101534 56 359 6.1 11.3 0.00 0.08 0.00 64 1015.7
20260505101017 56 320 6.1 11.3 0.00 0.08 0.00 64 1015.7
20260505100515 56 330 6.1 11.3 0.00 0.08 0.00 64 1015.7
20260505100031 56 338 3.5 10.4 0.00 0.08 0.00 69 1015.7
20260505095517 56 337 5.2 8.7 0.00 0.16 0.00 67 1015.7
20260505095016 56 338 1.7 7.0 0.00 0.16 0.00 70 1015.7
20260505094530 56 344 2.6 9.6 0.00 0.16 0.00 69 1015.7
20260505094015 56 358 3.5 9.6 0.00 0.16 0.00 69 1015.8
20260505093518 56 355 3.5 9.6 0.00 0.16 0.00 70 1015.7
20260505093037 56 335 3.5 9.6 0.00 0.16 0.00 68 1015.8
20260505092516 55 356 4.3 11.3 0.00 0.16 0.00 69 1015.8
20260505092016 56 8 5.2 11.3 0.00 0.16 0.00 69 1015.9
20260505091536 56 333 3.5 10.4 0.00 0.16 0.00 70 1015.9
20260505091019 55 356 3.5 10.4 0.00 0.16 0.00 71 1015.9
20260505090517 55 338 4.3 10.4 0.00 0.16 0.00 68 1015.8
20260505090035 55 355 5.2 10.4 0.00 0.16 0.00 70 1015.9
20260505085516 55 331 4.3 11.3 0.00 0.18 0.00 73 1015.9
20260505085017 54 25 5.2 11.3 0.00 0.18 0.00 73 1015.8
20260505084532 54 347 6.1 10.4 0.00 0.18 0.00 73 1015.9
20260505084014 54 354 6.1 9.6 0.00 0.18 0.00 73 1015.8
20260505083518 54 342 3.5 9.6 0.00 0.18 0.00 76 1015.9
20260505083036 54 41 5.2 9.6 0.00 0.18 0.00 75 1015.9
20260505082519 54 321 5.2 9.6 0.00 0.18 0.00 74 1015.9
20260505082018 54 342 3.5 8.7 0.00 0.18 0.00 77 1015.9
20260505081538 54 342 5.2 9.6 0.00 0.18 0.00 76 1015.8
20260505081018 54 1 5.2 9.6 0.00 0.18 0.00 78 1015.9
20260505080515 54 335 2.6 8.7 0.00 0.18 0.00 82 1015.8
20260505080337 54 333 2.6 8.7 0.00 0.18 0.00 82 1015.8
20260505075515 53 345 4.3 8.7 0.00 0.18 0.00 83 1015.8
20260505075019 53 346 4.3 7.8 0.00 0.18 0.00 84 1015.7
20260505074530 53 1 3.5 7.8 0.00 0.18 0.00 85 1015.8
20260505074015 53 16 4.3 7.8 0.00 0.18 0.00 84 1015.8
20260505073520 53 11 2.6 7.0 0.00 0.18 0.00 85 1015.7
20260505073034 53 338 3.5 7.8 0.00 0.18 0.00 85 1015.7
20260505072521 53 340 4.3 7.8 0.00 0.18 0.00 85 1015.8
20260505072015 53 333 1.7 7.0 0.00 0.18 0.00 85 1015.7
20260505071530 52 339 1.7 7.0 0.00 0.18 0.00 85 1015.8
20260505071016 51 14 3.5 7.0 0.00 0.18 0.00 84 1015.9
20260505070519 51 16 3.5 7.0 0.00 0.18 0.00 83 1015.9
20260505070037 51 356 4.3 7.0 0.00 0.18 0.00 84 1015.9
20260505065518 50 4 1.7 6.1 0.00 0.22 0.00 86 1015.9
20260505065014 50 335 0.0 1.7 0.00 0.22 0.00 87 1015.8
20260505064535 50 328 0.0 1.7 0.00 0.22 0.00 87 1015.8
20260505064015 50 336 0.0 1.7 0.00 0.22 0.00 87 1015.9
20260505063516 50 337 0.9 1.7 0.00 0.22 0.00 87 1015.8
20260505063030 50 0 0.0 2.6 0.00 0.22 0.00 88 1015.8
20260505062521 50 341 0.9 2.6 0.00 0.22 0.00 88 1015.7
20260505062015 50 338 0.9 2.6 0.00 0.22 0.00 88 1015.9
20260505061550 50 338 0.0 2.6 0.00 0.22 0.00 88 1015.8
20260505061015 50 340 0.9 3.5 0.00 0.22 0.00 88 1015.7
20260505060519 50 352 1.7 3.5 0.00 0.22 0.00 88 1015.8
20260505060035 50 345 0.9 2.6 0.00 0.22 0.00 88 1015.6
20260505055520 50 340 0.0 2.6 0.00 0.27 0.00 88 1015.7
20260505055016 50 0 0.9 2.6 0.00 0.27 0.00 88 1015.6
20260505054533 50 340 0.0 3.5 0.00 0.27 0.00 88 1015.7
20260505054018 50 340 0.9 3.5 0.00 0.27 0.00 88 1015.7
20260505053516 50 340 1.7 3.5 0.00 0.27 0.00 88 1015.6
20260505053039 50 340 0.9 5.2 0.00 0.27 0.00 88 1015.5
20260505052514 50 338 2.6 5.2 0.00 0.27 0.00 88 1015.6
20260505052015 50 349 1.7 5.2 0.00 0.27 0.00 88 1015.6
20260505051552 50 358 2.6 4.3 0.00 0.27 0.00 88 1015.4
20260505051018 50 356 2.6 5.2 0.00 0.27 0.00 88 1015.5
20260505050516 50 344 1.7 5.2 0.00 0.27 0.00 89 1015.4
20260505041533 51 343 1.7 4.3 0.00 0.44 0.00 90 1015.4
20260505041017 51 340 2.6 4.3 0.00 0.44 0.00 90 1015.3
20260505040516 51 338 1.7 4.3 0.00 0.44 0.00 90 1015.3
20260505040030 51 342 0.9 3.5 0.00 0.44 0.00 90 1015.3
20260505035516 51 338 0.9 2.6 0.00 0.44 0.00 90 1015.3
20260505035015 51 327 0.9 1.7 0.00 0.44 0.00 90 1015.3
20260505034533 51 338 0.0 2.6 0.00 0.44 0.00 90 1015.3
20260505034015 51 338 0.9 2.6 0.00 0.44 0.00 90 1015.3
20260505033515 51 354 0.9 2.6 0.00 0.44 0.00 90 1015.3
20260505033032 51 346 0.9 2.6 0.00 0.44 0.00 90 1015.3
20260505032514 52 337 0.0 3.5 0.00 0.44 0.00 89 1015.4
20260505032015 52 338 0.9 4.3 0.00 0.44 0.00 89 1015.3
20260505031530 52 345 2.6 4.3 0.00 0.44 0.00 90 1015.3
20260505031015 52 1 1.7 3.5 0.00 0.44 0.00 90 1015.3
20260505030516 52 338 1.7 4.3 0.00 0.44 0.00 90 1015.3
20260505030036 52 342 1.7 4.3 0.00 0.44 0.00 90 1015.3
20260505025516 52 342 1.7 4.3 0.00 0.44 0.00 90 1015.3
20260505025015 52 352 2.6 4.3 0.00 0.44 0.00 90 1015.2
20260505024533 52 348 2.6 4.3 0.00 0.44 0.00 90 1015.2
20260505024015 52 349 1.7 3.5 0.00 0.44 0.00 90 1015.2
20260505023515 52 349 0.9 3.5 0.00 0.44 0.00 90 1015.2
20260505023032 52 340 0.9 3.5 0.00 0.44 0.00 91 1015.3
20260505022516 52 338 0.9 3.5 0.00 0.44 0.00 91 1015.3
20260505022017 52 342 0.9 3.5 0.00 0.44 0.00 91 1015.3
20260505021534 52 339 0.9 3.5 0.00 0.44 0.00 91 1015.3
20260505021015 52 342 0.9 3.5 0.00 0.44 0.00 91 1015.3
20260505020515 52 347 0.9 3.5 0.00 0.44 0.00 91 1015.4
20260505020031 52 339 0.9 3.5 0.00 0.44 0.00 91 1015.3
20260505015515 52 345 1.7 3.5 0.00 0.44 0.00 91 1015.4
20260505015015 52 338 0.9 3.5 0.00 0.44 0.00 91 1015.4
20260505014530 52 342 1.7 3.5 0.00 0.44 0.00 91 1015.4
20260505014019 52 342 0.9 3.5 0.00 0.44 0.00 91 1015.4
20260505013515 52 356 0.9 3.5 0.00 0.44 0.00 90 1015.5
20260505013033 52 339 1.7 3.5 0.00 0.44 0.00 90 1015.5
20260505012515 52 346 1.7 3.5 0.00 0.44 0.00 90 1015.4
20260505012016 52 339 1.7 3.5 0.00 0.44 0.00 90 1015.5
20260505011534 52 338 0.9 4.3 0.00 0.44 0.00 90 1015.5
20260505011015 52 342 2.6 4.3 0.00 0.44 0.00 91 1015.7
20260505010517 52 350 1.7 4.3 0.00 0.44 0.00 91 1015.7
20260505010037 52 344 0.9 2.6 0.00 0.44 0.00 91 1015.7
20260505005517 52 338 1.7 3.5 0.00 0.44 0.00 91 1015.7
20260505005017 52 330 0.9 4.3 0.00 0.44 0.00 91 1015.7
20260505004530 52 338 1.7 4.3 0.00 0.44 0.00 91 1015.6
20260505004016 52 341 1.7 4.3 0.00 0.44 0.00 91 1015.7
20260505003518 52 346 1.7 4.3 0.00 0.44 0.00 91 1015.7
20260505003033 52 339 2.6 4.3 0.00 0.44 0.00 91 1015.8
20260505002515 52 354 1.7 4.3 0.00 0.44 0.00 91 1015.7
20260505002015 52 13 1.7 4.3 0.00 0.44 0.00 90 1015.8
20260505001533 52 346 1.7 4.3 0.00 0.44 0.00 90 1015.8
20260505001014 52 348 0.9 3.5 0.00 0.44 0.00 90 1015.9
20260505000515 52 346 1.7 3.5 0.00 0.44 0.00 90 1015.9
20260505000030 52 336 0.9 3.5 0.00 0.44 0.00 90 1015.9
20260504235515 52 347 0.9 4.3 0.00 0.44 0.00 90 1015.9
20260504235016 52 338 0.9 4.3 0.00 0.44 0.00 90 1016.0
20260504234534 52 346 0.0 1.7 0.00 0.44 0.00 90 1015.9
20260504234015 52 0 0.0 3.5 0.00 0.44 0.00 90 1015.9
20260504233515 52 339 0.0 3.5 0.00 0.44 0.00 90 1015.9
20260504233033 52 345 0.9 4.3 0.00 0.44 0.00 90 1016.0
20260504232516 52 344 1.7 4.3 0.00 0.44 0.00 90 1015.9
20260504232015 52 7 1.7 5.2 0.00 0.44 0.00 90 1015.9
20260504231531 52 345 2.6 7.0 0.00 0.44 0.00 90 1015.9
20260504231013 52 346 2.6 7.0 0.00 0.44 0.00 90 1015.8
20260504230517 52 347 3.5 6.1 0.00 0.44 0.00 90 1015.8
20260504230039 52 352 2.6 5.2 0.00 0.44 0.00 89 1015.8
20260504225518 52 11 1.7 4.3 0.00 0.44 0.44 89 1015.8
20260504225015 52 343 1.7 5.2 0.00 0.44 0.44 89 1015.9
20260504224532 52 340 2.6 5.2 0.00 0.44 0.44 89 1015.8
20260504224016 52 340 3.5 6.1 0.00 0.44 0.44 89 1015.9
20260504223517 53 28 2.6 6.1 0.00 0.44 0.44 89 1016.0
20260504223030 52 6 3.5 6.1 0.00 0.44 0.44 89 1016.0
20260504222516 53 357 3.5 6.1 0.00 0.44 0.44 89 1016.0
20260504222017 53 350 3.5 6.1 0.00 0.44 0.44 89 1015.9
20260504221532 53 13 2.6 6.1 0.00 0.44 0.44 89 1015.9
20260504221015 53 341 2.6 6.1 0.00 0.44 0.44 88 1015.9
20260504220518 53 351 2.6 6.1 0.00 0.44 0.44 88 1016.0
20260504220035 53 348 2.6 6.1 0.00 0.44 0.44 88 1016.0
20260504215515 53 340 3.5 6.1 0.00 0.44 0.44 89 1016.0